STARLINK-32308, 61663

Orbit data source: Space-Track

STARLINK-32308, 61663 is a payload satellite owned by SpaceX/Seattle (US) in LEO that was launched on Sat, 26 Oct 2024 UTC via an FALCON 9 launch vehicle from the Air Force Eastern Test Range (AFETR). Payload-class satellites include a variety of spacecraft equipped with specific instruments for various scientific and technological missions. These include communications satellites like Starlink; space stations such as the ISS; scientific satellites like the Hubble; Earth observation satellites from companies like Planet Labs, Umbra, and HawkEye 360; GPS; miniature CubeSats for education and research; and military/defense satellites.

Loading next visibility...
Identifier
61663, 2024-193C
Orbit
LEO
Country
Flag of USUS
Related business
Manufacturer
SpaceX/Seattle
Mission
Operational Commercial Communications
Bus & Motor
STARLINK V2M, Unknown motor
Mass
730 kg wet, ~700 kg dry
Launch date (UTC)
2024-10-26 (10 months ago)
Launch vehicle
FALCON 9
Launch site
Air Force Eastern Test Range (AFETR)
Object type
Payload
Rocket body
Debris
Shape & HBR
Box + 2 Pan, 14.5 m
Radar Cross Section
36.964 m², Large (>1 m²)

Expand to show TLE details & history
Last TLE update: 15 hours ago

TLE from 15 hours ago
0 STARLINK-32308
1 61663U 24193C   25243.31505374 -.00000278  00000-0  27526-5 0  9990
2 61663  53.1586 254.9756 0001244  75.6063 284.5076 15.30191114 47388
Epoch: 2025-08-31T07:33Z
TLE epoch observation values (Epoch: 2025-08-31T07:33:40.643Z)
Latitude
0.00002°
Longitude
161.8195°
Altitude
475.928 km
Speed
7.629 km/s
True Right ascension
16h 59m 54s
True Declination
0° 00' 00"
Sunlit
Object was in daylight at epoch
Visualization orbit readout
Latitude
Unknown
Longitude
Unknown
Altitude
Unknown
Speed
Unknown
Apparent Right ascension
Unknown
Apparent Declination
Unknown
Sunlit
N/A
Visualization observer readout
Local Sidereal Time
14:08:32
Azimuth
Unknown
Elevation
Unknown
Doppler factor
Unknown
Orbital elements
Apogee altitude
476.351 km
Perigee altitude
474.646 km
Semi-major axis
6,853.635 km
Eccentricity
0.00012
Inclination
53.1586°
RAAN
254.9756°
Arg. of periapsis
75.6063°
True anomaly
284.4938°
Mean anomaly
284.5076°
Eccentric anomaly
284.5007°
Mean motion
3.82527 °/min
Orbital period
94.11 mins
BSTAR
0.0000027526
Loading maneuver chart data...
Computing Atmospheric mass density...
Loading historical data...
Loading historical data...
Loading historical data...
Loading historical data...
Loading historical data...
Loading historical data...
Loading historical data...

Documentation

Showing up to 5 results
|